OneWeb SL0405

operational
NORAD ID: 50485 Int'l Des: 2021-132 Owner: ONEWEBN Country: UK Constellation: oneweb
LEOCIRCULARPOLARONEWEB_TYPE

Über OneWeb SL0405

Beschreibung wird geladen...

Live-Position

3D-Globus wird geladen...

Nächste Überflüge

Höhenverlauf

Altitude vs Time

uPlot chart will show altitude changes over time

Zweizeiliger Elementsatz

1 50485U 21132S 25296.47367216 .00000010 00000-0 -67180-5 0 9990
2 50485 87.9230 22.4458 0001568 106.9582 253.1722 13.18685066190791
Epoch: 23. Okt. 2025 • Age: 30 hours

Aktueller Status

Höhe 1214.2 km
Geschwindigkeit 7.25 km/s
Subsatellitenpunkt -61.03°S, 93.29°W
Startdatum 27. Dez. 2021
Alter 3.8 years
Typ internet

Technische Details

Klassifizierung Payload
Masse 148.00 kg
Trockenmasse 140.00 kg
Gesamtmasse 148.00 kg
Länge 1.30 m
Durchmesser 1.00 m
Spannweite 5.00 m
Form Trapezoid+2 pan
Hersteller ONEWUS
Bus-Typ ARROW
Phasenstatus In Orbit
Besitzer/Staat ONEWEBN/UK

Große Konstellationen

Loading constellations...